This is the latest recevied weather packets stored in our database for station/object DG7YEO-13. If no packets are shown the sender has not sent any weather packets the latest 1 day(s).
| Time | Temp. | Humidity | Pressure | Rain* | Wind** | Luminosity | Snow |
|---|---|---|---|---|---|---|---|
| 1777988825 | 12.22° C | 89% | 1008.9 hPa | 0 mm | 0.45 m/s, 293° | - | - |
| 1777987925 | 12.22° C | 89% | 1009 hPa | 0 mm | 0 m/s | - | - |
| 1777987025 | 12.22° C | 89% | 1009.1 hPa | 0 mm | 0 m/s | - | - |
| 1777986125 | 12.22° C | 89% | 1009.3 hPa | 0 mm | 0.45 m/s, 287° | - | - |
| 1777985224 | 11.67° C | 89% | 1009.2 hPa | 0 mm | 0.45 m/s, 319° | - | - |
| 1777984324 | 11.67° C | 90% | 1009.2 hPa | 0 mm | 0 m/s | - | - |
| 1777983425 | 11.67° C | 91% | 1009.3 hPa | 0 mm | 0 m/s | - | - |
| 1777982525 | 11.67° C | 91% | 1009.5 hPa | 0 mm | 0 m/s | - | - |
| 1777981625 | 11.67° C | 92% | 1009.5 hPa | 0 mm | 0 m/s | - | - |
| 1777980724 | 11.11° C | 91% | 1009.4 hPa | 0 mm | 0.45 m/s, 307° | - | - |
| 1777979825 | 11.11° C | 92% | 1009.5 hPa | 0 mm | 0.45 m/s, 333° | - | - |
| 1777978925 | 11.11° C | 92% | 1009.6 hPa | 0 mm | 0.45 m/s, 13° | - | - |
| 1777978025 | 11.11° C | 94% | 1009.7 hPa | 0 mm | 0.45 m/s, 299° | - | - |
| 1777977124 | 11.11° C | 94% | 1009.7 hPa | 0 mm | 0.45 m/s, 238° | - | - |
| 1777976225 | 10.56° C | 94% | 1010 hPa | 0 mm | 0.45 m/s, 252° | - | - |
| 1777975324 | 10.56° C | 95% | 1010 hPa | 0 mm | 0 m/s | - | - |
| 1777974424 | 10.56° C | 95% | 1010 hPa | 0 mm | 0.45 m/s, 303° | - | - |
| 1777973525 | 10.56° C | 95% | 1010 hPa | 0 mm | 0 m/s | - | - |
| 1777972624 | 10.56° C | 95% | 1010 hPa | 0 mm | 0.45 m/s, 282° | - | - |
| 1777971725 | 10.56° C | 95% | 1010 hPa | 0 mm | 0.45 m/s, 275° | - | - |
| 1777970825 | 10.56° C | 95% | 1010 hPa | 0 mm | 0.45 m/s, 309° | - | - |
| 1777969925 | 10.56° C | 96% | 1010 hPa | 0 mm | 0 m/s | - | - |
| 1777969025 | 10.56° C | 96% | 1010 hPa | 0.25 mm | 0.45 m/s, 319° | - | - |
| 1777968125 | 10.56° C | 96% | 1010 hPa | 0.51 mm | 0.45 m/s, 269° | - | - |
| 1777967224 | 10.56° C | 96% | 1010.1 hPa | 1.52 mm | 0.45 m/s, 317° | - | - |
* Rain latest hour (hover to see other rain measurements)
** Current wind speed in m/s (hover to see current wind gust speed)